Theta_e
316 316 316 316 316 317 317 317 317 317 317 317 317 317 318 320 324 330 333 336 336 332 332 331 335 336 342 351 357 357 342 347 350 348 350 351 343 348 350 349 349 350 340 338 340
317 317 317 317 317 317 317 317 317 317 317 317 317 317 317 319 323 332 335 334 335 335 332 331 333 333 344 348 352 343 342 347 346 344 347 350 347 350 350 350 350 349 339 339 341
318 317 317 317 316 316 317 317 317 317 317 317 317 317 317 318 321 329 331 331 333 335 332 331 335 335 336 339 343 342 345 346 347 345 345 347 350 350 350 351 350 346 338 344 345
319 318 318 317 317 316 316 317 317 317 318 318 317 317 317 318 323 330 330 331 332 333 333 335 336 335 334 336 342 346 345 346 347 346 346 347 350 350 350 349 345 344 337 342 347
320 319 319 318 317 317 316 316 316 317 317 318 318 317 317 317 321 326 327 328 332 333 332 335 335 333 332 341 342 344 342 343 346 346 347 347 350 350 350 347 344 346 344 340 342
321 321 320 319 318 317 317 316 316 316 317 318 318 317 317 317 322 327 326 327 328 330 332 335 335 334 337 340 341 343 344 344 344 344 344 350 350 350 349 346 347 347 345 345 345
321 321 321 320 319 318 317 317 316 316 316 318 318 317 317 320 322 324 327 327 328 329 333 335 334 332 333 342 344 341 342 343 345 344 343 347 349 352 350 348 350 349 348 347 347
321 321 321 321 320 319 318 317 316 315 316 318 318 318 317 321 322 324 325 326 327 328 331 331 330 331 342 343 341 342 341 341 343 347 344 344 349 350 350 349 350 350 349 348 348
318 320 321 321 321 320 318 317 318 317 316 318 318 318 319 321 321 323 323 324 324 325 328 328 329 332 339 335 334 338 343 344 346 345 346 340 345 348 350 350 349 350 350 350 350
314 318 321 321 322 320 320 325 326 326 322 321 319 317 319 321 323 323 323 323 323 323 325 328 330 326 326 329 334 339 341 345 347 346 349 348 351 347 348 348 349 349 350 350 350
312 315 319 321 322 320 323 324 323 323 322 323 322 318 318 321 322 323 323 323 323 322 322 326 326 326 328 329 331 335 339 344 345 345 349 348 349 349 347 347 347 347 346 346 348
311 314 317 321 322 318 324 323 323 322 321 322 322 323 323 324 323 324 322 322 320 318 324 323 325 326 327 328 331 334 338 341 342 346 346 348 347 342 343 345 347 347 346 347 347
311 313 316 320 322 321 324 323 323 323 320 321 322 322 321 323 324 324 323 322 320 320 322 322 325 326 329 329 332 332 336 339 342 347 344 346 344 346 343 339 342 346 347 347 347
313 314 315 320 321 322 324 323 323 323 315 318 320 322 321 324 323 325 325 323 320 319 318 321 323 326 326 326 329 329 332 336 344 344 344 341 343 339 342 341 339 341 344 348 347
315 317 315 318 321 322 324 324 322 324 318 324 322 322 322 322 322 324 325 323 319 320 318 319 326 327 327 327 329 328 330 332 342 340 344 347 343 340 340 341 340 341 343 347 348
318 319 317 317 320 322 322 322 324 316 317 321 321 321 321 321 321 322 322 323 322 319 318 317 321 323 323 325 326 327 327 328 331 336 338 338 344 336 342 342 341 341 343 342 347
320 319 318 317 322 323 322 324 315 319 320 323 321 320 318 317 319 321 321 319 318 319 317 317 317 319 322 321 321 325 320 322 327 333 337 332 339 340 335 339 341 342 345 344 345
319 323 320 319 322 325 323 318 323 323 324 322 321 318 320 318 319 319 318 318 315 316 312 315 316 318 321 320 321 320 319 322 329 330 330 331 339 336 339 339 342 342 343 344 344
320 324 324 323 322 323 323 317 319 321 321 322 319 318 318 319 321 319 317 315 316 312 316 314 316 317 320 321 321 322 324 322 322 320 328 335 336 334 338 340 340 340 341 341 343
326 326 325 323 323 323 314 317 319 319 321 323 321 320 320 318 319 317 318 318 317 314 315 315 317 317 319 320 320 319 319 321 317 326 327 325 337 336 336 339 340 341 341 341 340
327 327 325 325 325 324 319 319 321 325 324 324 321 321 320 320 319 319 321 321 321 323 313 312 314 319 319 318 318 317 319 319 316 318 322 323 326 330 333 335 337 339 342 341 342
326 323 325 325 323 317 320 322 325 325 325 323 320 321 321 321 322 320 322 322 325 326 324 315 311 315 316 317 317 316 318 315 317 319 317 318 321 321 330 332 337 339 341 342 341
329 328 325 325 320 319 320 321 324 323 323 323 322 320 319 323 325 323 327 328 328 327 328 320 313 314 315 316 317 320 318 316 313 314 317 320 321 328 335 334 338 339 337 338 341
325 320 324 325 322 321 321 322 324 327 328 326 327 327 326 326 324 327 329 328 328 328 328 319 311 314 316 315 316 321 321 318 316 316 318 318 322 328 339 337 336 339 338 345 346
317 315 314 316 317 317 318 319 321 320 327 328 328 329 329 329 327 329 328 326 327 326 325 320 318 317 319 316 319 320 321 320 320 318 321 321 320 322 334 336 336 339 349 347 347
313 312 314 314 317 315 312 315 317 318 323 320 324 325 329 329 329 328 328 326 327 325 322 320 328 322 327 319 318 320 321 321 321 319 318 320 325 326 335 337 337 340 351 350 350
311 313 315 314 313 313 313 315 317 317 319 320 320 325 326 323 320 326 328 327 324 325 322 324 325 325 329 322 319 320 319 322 322 327 322 326 325 320 334 336 337 340 353 352 352
Wind_Speed
11 11 11 11 11 11 11 12 12 12 13 12 12 10 10 10 12 15 16 7 5 3 8 8 7 4 8 7 9 5 4 2 5 6 6 16 5 6 5 14 4 2 15 29 33
11 12 12 12 12 11 12 12 13 13 13 12 12 12 11 11 13 18 15 10 11 9 9 12 11 8 6 4 7 4 4 6 6 6 7 17 13 14 7 6 5 9 21 33 31
12 12 13 13 13 13 12 12 13 13 13 13 12 12 11 11 11 16 13 12 12 12 11 10 11 6 5 0 2 4 5 4 5 10 19 14 17 9 17 2 9 28 39 32 30
13 13 13 14 14 14 13 13 13 13 13 12 13 11 11 7 4 1 5 6 9 8 9 11 14 8 3 4 6 4 5 4 9 13 9 8 17 11 3 5 16 33 37 33 28
14 14 14 15 15 15 15 14 14 13 14 12 13 12 10 5 14 7 8 4 2 3 7 8 7 6 6 2 2 4 2 11 15 14 13 16 14 10 8 19 21 28 30 30 26
15 15 15 15 16 16 16 15 14 13 14 13 12 12 10 4 4 5 4 3 4 3 5 6 5 10 3 2 2 9 8 10 14 20 11 13 15 8 13 26 27 27 30 28 25
16 16 16 16 16 16 16 15 15 13 12 13 12 13 14 16 7 8 6 3 2 3 5 6 8 11 11 3 8 8 5 5 4 6 4 13 4 4 26 27 30 28 26 26 25
15 16 16 16 16 16 16 15 14 13 11 11 12 13 11 7 13 14 9 8 4 4 5 7 10 8 2 7 6 3 4 3 3 1 1 5 2 11 25 27 24 28 29 28 27
15 15 16 16 17 17 15 13 12 11 10 9 10 7 13 8 12 13 14 13 8 8 9 10 7 2 3 4 4 5 2 2 4 2 2 4 4 11 26 25 27 30 32 33 30
15 15 15 15 15 15 12 9 5 4 3 6 10 6 12 1 2 11 13 15 13 9 8 3 4 3 4 4 3 4 3 4 2 6 5 3 6 15 28 28 29 29 30 35 34
16 15 14 13 13 12 12 3 7 1 15 9 8 12 18 10 10 6 10 11 12 4 2 2 3 6 11 6 6 2 4 5 6 7 2 7 9 15 26 26 21 23 28 33 35
16 16 13 11 9 7 8 8 13 11 12 14 20 25 28 27 10 4 4 8 6 5 3 4 7 8 10 7 6 5 4 6 3 4 0 5 5 8 10 22 26 26 30 33 36
18 16 13 9 7 2 3 10 11 10 4 12 12 16 22 12 11 11 4 6 3 4 4 7 6 4 1 3 1 3 5 4 3 4 1 3 4 6 8 16 20 21 25 35 37
18 16 13 6 2 2 2 6 7 10 5 7 5 4 12 13 5 18 19 6 1 8 5 6 4 7 4 4 6 7 4 8 7 5 7 4 6 5 7 9 10 23 24 35 36
17 14 11 6 5 1 3 5 9 4 4 3 3 2 7 10 5 8 18 12 7 5 6 9 2 4 4 7 5 12 3 11 14 6 4 1 2 8 0 8 9 19 33 32 40
17 13 8 6 3 2 5 10 3 5 2 8 2 4 1 2 2 2 5 9 1 4 1 7 4 2 7 2 6 5 4 5 5 5 2 7 9 6 5 16 6 17 31 30 32
13 10 6 4 1 1 4 3 5 3 5 9 6 8 0 5 5 1 5 2 4 2 3 5 6 4 4 6 2 3 6 3 3 1 5 4 7 14 5 8 11 16 25 28 31
9 7 6 1 3 1 4 5 4 3 4 4 5 7 6 6 2 4 6 3 1 4 3 5 8 7 4 7 8 5 8 5 5 4 5 6 6 7 5 12 14 17 25 28 26
5 8 9 4 3 0 1 4 5 4 3 8 8 8 8 6 1 7 2 5 7 10 10 6 7 6 4 4 7 1 3 5 6 4 2 3 7 9 2 7 5 9 14 22 29
6 6 9 8 7 2 5 3 3 5 5 3 3 3 7 7 8 7 6 1 5 10 2 7 4 7 7 4 2 7 5 1 3 3 4 4 4 6 6 9 9 8 20 30 29
5 4 3 4 3 4 3 5 6 14 8 3 2 3 2 2 2 5 4 6 5 8 6 5 5 8 2 4 7 3 1 3 5 5 6 4 7 9 10 13 14 14 25 28 34
4 3 1 1 5 2 0 3 7 8 6 6 4 2 2 1 3 6 6 4 20 11 7 4 5 6 13 5 4 6 8 7 5 6 3 3 7 5 12 7 7 14 21 25 28
4 3 2 3 2 4 7 6 4 4 7 7 7 6 2 4 4 4 5 13 20 9 6 3 1 2 9 4 3 5 5 5 3 3 8 6 7 5 6 6 9 15 12 24 27
3 3 2 2 4 1 4 6 7 12 3 4 3 5 6 6 5 3 5 5 20 8 22 1 1 4 7 8 4 5 4 5 5 3 4 7 9 7 8 8 9 14 14 18 29
6 2 2 3 3 4 2 5 5 7 8 18 6 4 2 4 7 4 3 5 11 7 12 4 2 5 6 6 5 5 5 6 6 6 5 5 9 10 11 13 21 26 18 26 33
4 4 5 4 9 5 4 5 6 7 3 6 4 9 2 1 3 6 2 2 4 7 6 5 4 5 6 3 6 6 6 6 4 4 5 3 7 6 6 7 11 28 31 32 35
6 4 3 3 5 2 1 5 4 7 5 5 5 2 5 3 19 22 19 15 10 3 3 1 2 4 6 3 6 2 7 5 4 8 3 4 6 8 8 8 20 27 30 32 40
Wind_Direction
347 345 344 342 342 342 341 342 341 341 342 341 336 324 303 282 269 271 271 274 296 331 331 330 324 297 245 241 202 185 65 205 142 164 144 154 135 170 99 129 108 128 157 162 155
339 337 336 335 335 334 333 334 334 335 337 336 336 331 320 298 275 260 264 276 279 286 313 319 337 331 217 219 176 146 125 209 188 147 149 167 157 137 126 126 67 112 149 152 159
333 332 329 327 327 326 326 327 327 327 331 333 331 332 326 316 303 272 279 273 268 269 297 312 342 318 246 164 70 147 169 171 135 156 150 146 135 126 139 199 203 153 152 160 167
331 327 325 323 322 321 321 321 321 320 322 326 325 330 326 314 226 119 33 244 245 265 292 325 340 346 36 37 21 101 91 134 143 153 140 122 133 134 110 197 171 160 162 166 176
326 324 323 321 319 316 317 315 314 313 313 319 320 325 329 293 253 273 333 4 263 258 292 321 5 347 354 63 58 34 42 92 127 152 127 130 145 142 131 147 152 158 170 178 190
323 321 320 318 316 315 313 310 307 305 305 309 312 315 311 286 263 272 253 332 337 268 286 303 337 343 306 7 1 75 95 99 112 94 77 107 137 118 150 156 159 167 177 185 192
320 320 318 317 316 314 313 309 304 300 295 299 304 305 290 253 254 248 222 224 15 344 285 294 335 335 320 136 147 111 65 35 32 115 94 113 56 135 158 162 166 177 183 192 199
317 315 316 316 316 314 314 310 302 296 286 286 293 300 270 259 231 226 232 242 239 263 269 297 323 326 314 118 51 77 70 356 281 214 1 120 47 140 166 167 180 186 196 202 204
318 314 313 314 314 317 324 317 304 289 279 278 282 288 270 264 244 238 229 243 260 261 263 285 298 267 116 79 46 358 233 230 237 306 139 107 148 166 180 184 191 198 201 210 214
320 317 313 315 315 323 348 331 351 335 347 279 261 291 258 308 268 230 235 245 253 270 289 239 135 77 30 76 224 196 192 266 248 216 150 116 162 170 187 196 205 204 212 210 213
324 321 316 314 317 330 16 38 4 308 322 260 264 256 281 274 304 202 235 240 232 260 180 20 119 172 222 199 219 196 172 226 271 169 147 188 156 177 193 209 216 210 211 212 221
328 322 320 315 309 327 24 55 24 314 295 282 264 259 259 275 298 259 191 190 161 193 133 11 234 218 158 203 233 210 190 244 308 109 141 177 206 205 194 210 213 216 218 222 220
332 327 322 321 303 297 44 14 13 352 278 291 262 255 249 244 228 253 203 176 146 151 180 189 216 105 187 126 277 262 231 211 197 137 41 110 282 219 234 230 226 224 230 229 222
334 328 325 331 300 314 122 2 337 337 41 281 277 288 194 196 251 241 249 244 84 196 175 242 222 232 275 269 141 285 215 252 181 152 221 155 267 265 206 233 230 227 223 232 224
332 330 325 325 298 332 276 310 313 317 23 326 281 310 187 181 147 213 227 208 175 188 109 242 255 196 170 228 152 250 232 252 197 151 109 195 67 272 331 251 223 222 226 222 220
330 331 322 320 321 249 283 302 335 39 306 340 1 342 129 239 268 108 116 201 235 170 17 244 288 179 216 241 178 265 292 13 37 120 115 228 179 280 195 228 216 226 223 223 217
337 337 332 325 162 78 305 350 42 111 330 342 320 343 60 346 346 178 274 72 163 125 307 310 256 250 215 300 93 114 62 312 5 93 207 224 139 237 258 227 202 215 219 217 221
357 17 28 105 180 123 6 53 69 273 283 296 311 331 76 8 355 316 148 245 189 108 107 187 300 182 195 183 212 202 162 160 229 220 246 156 228 248 191 254 226 238 226 216 220
37 46 45 70 130 100 59 66 211 220 276 325 335 50 353 342 352 8 260 210 220 172 178 166 266 288 183 163 119 282 207 202 106 10 80 242 293 307 228 245 214 200 203 216 223
34 57 50 69 96 57 73 232 239 224 335 323 345 51 14 331 10 7 356 228 327 196 262 227 254 215 257 150 239 159 178 319 0 180 235 280 272 237 271 222 207 199 216 230 228
25 72 51 71 4 16 107 235 267 275 239 229 300 54 18 1 284 298 0 319 10 320 189 154 139 275 47 177 226 292 222 79 132 137 178 209 257 217 225 233 194 205 207 207 213
40 49 179 155 24 31 288 219 306 296 2 249 209 151 136 39 351 0 21 278 348 321 331 226 173 211 223 238 203 167 209 158 134 259 187 172 268 230 222 244 174 212 201 211 217
53 60 175 240 54 333 302 290 269 306 336 344 4 40 340 35 34 37 347 305 347 353 350 306 291 333 321 352 345 195 191 159 136 78 196 159 256 315 295 190 191 196 203 199 208
33 34 53 197 75 29 327 317 334 336 36 46 44 61 42 29 350 314 327 316 328 332 356 143 131 174 214 213 177 161 211 172 125 113 198 213 245 255 257 218 193 193 214 205 194
37 47 30 314 342 349 314 344 339 3 356 19 27 74 36 9 339 333 294 313 318 5 356 52 43 340 295 264 272 184 206 168 180 191 166 260 201 240 240 196 207 196 184 186 183
53 22 355 310 309 334 358 9 13 326 9 337 16 323 167 159 245 277 280 267 238 327 351 350 308 9 299 339 240 269 226 215 189 164 247 255 265 257 316 159 174 191 185 186 191
43 15 331 331 343 39 320 320 330 339 306 342 316 333 333 299 310 271 267 261 242 258 283 127 38 30 284 329 256 287 228 184 99 40 333 19 281 315 272 201 195 196 195 195 196